Location: Falconara Alta
(43.6167°N, 13.4000°E)
Time: 00:43:28
(UTC+00:00)

STARLINK-1225 - Pass Details

Date: 09 April 2020
Orbit: 549 x 550 km, 53.0° (Epoch: 02 June)

Event Time Altitude Azimuth Distance (km) Brightness Sun altitude
Rises 19:07:30 0° 305° (NW) 2,729 9.0 -15.2°
Reaches altitude 10° 19:09:52 10° 314° (NW) 1,833 7.5 -15.6°
Maximum altitude 19:13:45 37° 23° (NNE) 867 4.6 -16.2°
Enters shadow 19:15:43 23° 74° (ENE) 1,187 4.9 -16.5°
